Hourly Data Report for March 24, 2012

BAGOTVILLE A
QUEBEC

48°20'00.000" N
71°00'00.000" W
159.10 m
7060400
71727
YBG

Download Data

Hourly Data (March 2012)
Hourly Data Report for March 24, 2012
TIME
LST
Temp Definition
°C
Dew Point Definition
°C
Rel Hum Definition
%
Precip. Amount Definition
mm

Wind Dir Definition
10's deg

Wind Spd Definition
km/h
Visibility Definition
km
Stn Press Definition
kPa
Hmdx Definition


Wind Chill Definition


Weather Definition


00:00 -3.5 -10.7 57   33 11 24.1 100.48   -8 Clear
01:00 -4.0 -12.4 52   31 13 24.1 100.54   -9 Mainly Clear
02:00 -5.0 -10.9 63   29 13 24.1 100.50   -10 Clear
03:00 -5.4 -11.0 65   28 9 24.1 100.47   -9 Clear
04:00 -5.7 -11.5 64   29 13 24.1 100.44   -11 Clear
05:00 -5.9 -11.8 63   28 13 40.2 100.46   -11 Mainly Clear
06:00 -6.0 -11.5 65   29 15 40.2 100.50   -12 Mainly Clear
07:00 -5.0 -8.9 74   29 19 40.2 100.54   -11 Mainly Clear
08:00 -3.8 -11.2 56   30 20 40.2 100.55   -10 Mainly Clear
09:00 -2.0 -11.8 47   29 26 40.2 100.51   -9 Mainly Clear
10:00 -0.6 -13.6 37   31 22 40.2 100.44   -6 Mostly Cloudy
11:00 0.5 -11.4 40   30 22 40.2 100.37     Mostly Cloudy
12:00 1.3 -7.5 52   32 24 40.2 100.33     Mostly Cloudy
13:00 2.5 -10.3 38   31 22 40.2 100.20     Mostly Cloudy
14:00 2.7 -13.4 29   29 19 40.2 100.14     Cloudy
15:00 3.9 -12.7 29   28 22 40.2 100.11     Cloudy
16:00 3.4 -12.8 29   29 22 40.2 100.12     Cloudy
17:00 3.2 -13.3 29   27 17 40.2 100.04     Mainly Clear
18:00 1.0 -10.5 42   27 11 40.2 100.00     Mostly Cloudy
19:00 -0.1 -12.1 40   26 11 24.1 100.00   -4 Mostly Cloudy
20:00 0.0 -12.4 39   27 9 24.1 99.97   -3 Mostly Cloudy
21:00 -0.1 -7.8 56   27 6 24.1 99.91   -2 Mostly Cloudy
22:00 -1.3 -10.2 51   9 7 24.1 99.88   -4 Mainly Clear
23:00 -3.4 -5.6 85   18 4 24.1 99.82   -5 Mainly Clear

Notes on Data Quality.

Legend

  • E = Estimated
  • M = Missing
  • NA = Not Available*
  • [empty] = Indicates an unobserved value
Date modified: